Vertical_Velocity
-1 1 -3 -2 -2 2 -1 -1 2 1 3 -1 -3 3 1 1 -3 -5 -4 -2 3 1
-2 -3 -2 2 2 -1 -2 3 -1 2 4 -2 -2 2 -1 -4 -5 2 -0 -3 1 1
-4 -0 -3 2 -0 -2 -5 3 -6 3 3 -2 -1 -3 2 -2 1 3 0 5 3 -2
1 -1 -3 1 0 -4 -1 -1 -6 2 1 -6 -3 1 1 -1 2 -0 1 2 3 5
-2 -2 -1 -2 -1 2 0 -2 -2 3 2 -3 -3 -0 2 -1 2 -1 -4 0 -1 -3
-2 2 0 1 -1 1 -2 -2 -1 4 1 -1 -2 -3 2 1 -3 -6 -5 -1 -3 -1
2 -3 -3 2 -0 -1 -3 -2 -3 2 5 -0 -5 3 -1 -0 -1 -2 -1 3 3 -3
1 -2 1 -0 1 1 -1 -3 -2 -1 4 3 -5 0 -1 -1 -1 -4 -6 1 1 -0
0 -1 1 -3 -5 0 -3 -2 -1 0 3 -3 -2 -2 4 3 -2 -0 -1 -12 3 -0
-1 -0 -3 -3 -5 -3 -2 -2 -3 -1 -1 -1 -1 -2 -0 3 1 1 3 -3 2 -3
-0 -0 -2 -3 -3 -3 0 -1 -4 -4 -0 -2 0 -0 0 0 -0 1 3 -3 4 -1
-0 -2 -3 -2 -1 1 -1 -1 -1 -3 -1 -2 -0 0 -0 -2 -2 -1 -1 -6 3 -2
1 -2 -2 -2 -1 -1 0 -1 -1 -3 0 4 -1 2 -1 2 -2 -4 -4 -7 8 1
-1 -1 -2 -0 -1 -1 -1 -0 -1 -1 2 0 1 -2 1 2 -0 1 -1 0 3 0
Height
1480 1475 1471 1467 1463 1458 1452 1449 1445 1441 1436 1432 1427 1422 1418 1415 1412 1411 1410 1409 1408 1408
1476 1473 1469 1465 1459 1454 1450 1445 1439 1435 1429 1425 1420 1415 1410 1407 1403 1402 1401 1398 1397 1395
1474 1470 1466 1461 1455 1449 1446 1440 1435 1429 1422 1418 1414 1408 1403 1399 1395 1391 1389 1387 1385 1384
1471 1466 1463 1458 1451 1446 1441 1435 1430 1424 1417 1413 1408 1403 1397 1392 1386 1380 1376 1376 1374 1371
1467 1463 1458 1453 1448 1442 1435 1431 1425 1418 1411 1406 1403 1397 1390 1383 1377 1371 1365 1361 1360 1359
1465 1460 1454 1450 1444 1438 1430 1426 1420 1413 1406 1399 1396 1390 1384 1376 1369 1363 1358 1350 1347 1345
1461 1457 1452 1447 1440 1433 1427 1421 1416 1409 1401 1393 1390 1384 1377 1368 1360 1353 1346 1338 1335 1333
1459 1454 1449 1443 1437 1430 1423 1417 1411 1405 1397 1389 1384 1379 1370 1362 1353 1344 1335 1327 1322 1322
1456 1451 1444 1439 1434 1428 1421 1413 1407 1400 1393 1384 1378 1374 1366 1358 1347 1338 1329 1320 1313 1311
1452 1447 1441 1436 1431 1425 1418 1410 1403 1396 1389 1381 1374 1368 1361 1351 1341 1332 1323 1314 1306 1302
1450 1444 1438 1433 1429 1423 1416 1408 1400 1394 1387 1379 1372 1364 1356 1344 1335 1326 1318 1309 1301 1294
1448 1442 1436 1432 1427 1420 1413 1407 1400 1393 1387 1378 1369 1361 1351 1340 1329 1319 1311 1303 1297 1289
1448 1442 1437 1432 1425 1419 1413 1406 1400 1392 1387 1378 1367 1357 1348 1339 1326 1316 1307 1298 1291 1283
1448 1442 1437 1433 1425 1418 1411 1404 1398 1393 1385 1376 1366 1355 1346 1337 1326 1315 1304 1295 1284 1275